Wind_Speed
24 25 25 27 20 21 32 33 36 34 32 30 26 23 26 35 26 13 5 3 16 17 14 11 12 14 16 15 14 13 12 10 9 9 9 9 9 9 8 7 7 7 8 8 8 8 13 11 10
28 28 28 30 30 35 31 36 33 28 31 30 28 23 25 28 36 33 13 5 9 14 15 12 14 15 17 15 14 14 13 11 9 10 9 9 9 8 8 8 8 9 8 9 9 12 12 10 11
30 30 30 33 43 45 37 25 34 34 31 28 29 28 25 31 30 32 30 18 14 16 16 16 16 16 17 16 15 15 14 11 9 9 9 9 9 8 8 9 9 10 9 9 10 10 11 11 12
28 30 33 40 48 42 41 34 29 37 35 34 30 31 33 29 28 31 22 21 18 19 17 17 17 17 17 16 17 16 15 11 10 8 9 9 9 10 10 11 11 11 11 10 10 9 11 13 13
28 32 37 48 56 56 51 43 31 22 26 28 29 37 35 24 27 30 25 22 23 21 19 17 17 18 18 18 17 16 15 13 11 10 10 10 10 12 12 12 13 12 12 10 9 10 10 13 15
33 35 38 51 57 53 51 43 41 39 36 27 25 27 36 37 29 30 26 24 26 26 23 21 20 17 19 20 19 18 17 13 12 12 11 10 12 14 14 13 13 13 12 11 9 10 10 11 13
38 41 55 58 60 55 46 37 44 37 37 40 36 37 30 34 35 31 29 27 29 32 28 26 24 20 21 20 20 19 18 15 13 13 13 12 14 16 15 15 14 13 12 11 11 10 11 12 13
42 43 57 65 63 65 49 40 40 36 35 32 35 45 37 25 35 32 33 29 31 35 35 32 26 23 22 22 22 21 20 17 14 13 13 15 17 17 17 16 15 14 12 13 12 12 12 13 14
40 47 65 73 56 59 33 37 38 33 39 34 38 35 33 28 29 40 35 36 35 39 37 33 28 25 23 22 24 23 22 19 17 16 14 16 19 19 18 18 16 16 14 13 13 14 14 13 13
48 54 73 57 38 49 50 48 44 39 34 32 39 36 29 28 33 40 40 38 37 40 38 33 28 26 25 24 24 24 23 20 18 17 16 15 19 20 20 18 18 16 15 14 14 15 16 15 13
50 68 64 57 33 42 50 45 37 43 42 40 34 29 30 28 34 36 44 39 36 34 38 35 31 29 27 27 27 25 24 22 19 18 18 17 18 19 20 19 18 16 15 13 13 14 15 15 14
47 60 60 64 53 46 32 36 40 48 47 36 32 32 28 28 35 38 40 42 42 42 41 38 34 31 29 28 27 25 25 23 21 18 19 19 18 18 18 17 14 16 16 15 15 14 14 14 14
42 50 53 54 42 50 53 47 42 57 51 43 39 30 29 35 33 37 38 42 41 44 43 39 35 32 30 31 29 27 27 26 22 20 19 20 19 18 17 17 18 18 15 15 14 15 13 13 13
43 42 41 48 52 50 44 46 51 65 53 51 47 42 36 34 40 37 40 44 43 42 40 37 30 30 32 34 32 30 29 28 25 23 20 20 19 19 18 18 19 18 16 15 16 15 14 13 12
37 51 54 51 47 44 36 55 63 58 53 54 54 48 44 36 38 41 42 43 46 43 38 37 34 32 33 34 35 32 32 30 28 26 23 22 21 21 20 20 20 19 18 18 18 17 16 14 12
33 36 43 53 35 27 36 60 63 47 54 57 54 51 49 46 40 41 44 44 44 47 46 40 37 34 33 33 35 35 33 32 30 29 26 24 22 21 20 20 21 20 20 19 18 17 15 14 13
23 23 23 35 31 46 41 39 43 49 37 33 52 54 50 48 47 44 45 46 46 48 44 40 37 35 32 32 32 36 34 33 32 31 29 26 23 22 21 20 20 21 20 20 20 18 17 14 12
20 30 32 31 29 22 37 52 43 17 27 40 37 40 54 51 52 47 47 48 47 45 44 43 39 38 37 34 33 33 35 34 33 31 29 27 25 24 23 22 22 22 22 22 20 19 17 16 14
29 31 35 34 34 35 46 41 54 46 36 29 28 25 29 53 49 49 49 49 51 49 45 46 42 41 41 36 37 36 38 33 34 31 29 28 28 26 25 24 24 23 22 22 22 20 19 15 14
33 29 38 40 35 27 29 39 49 47 50 37 37 35 34 34 49 49 53 51 51 52 50 47 44 42 43 36 31 31 30 32 31 32 32 30 29 28 26 24 23 23 24 25 23 20 17 16 15
23 26 29 31 29 27 31 39 45 50 41 50 42 40 38 35 38 50 50 54 52 52 52 48 48 45 44 39 34 36 35 35 35 32 31 29 28 27 26 26 25 24 24 23 21 20 18 16 14
25 22 22 25 28 14 13 9 19 37 52 42 50 42 49 40 36 48 50 54 52 53 53 49 45 45 44 43 39 36 34 33 29 30 25 31 29 28 27 27 27 26 25 24 22 21 19 18 16
32 31 33 34 34 31 33 13 21 21 26 45 50 49 42 48 41 39 55 54 53 49 50 48 45 44 43 41 39 36 34 30 34 25 29 25 27 28 26 26 26 26 26 26 24 22 21 21 20
26 30 33 27 21 11 41 21 17 31 25 31 36 47 40 40 49 41 54 53 49 47 47 48 45 43 42 41 40 39 36 36 35 31 30 29 27 26 24 24 25 26 26 26 25 25 24 23 22
22 27 5 5 2 6 16 17 30 23 26 36 23 43 38 29 44 44 40 57 52 50 48 47 46 43 42 40 39 37 37 36 36 33 34 32 32 29 27 23 23 26 27 26 26 26 26 25 24
23 22 9 6 4 12 17 7 2 17 21 18 34 20 34 39 28 51 43 46 57 51 51 48 45 45 43 37 38 37 35 33 36 35 34 34 29 28 27 23 22 25 28 27 27 27 27 27 27
25 25 18 10 17 7 7 7 11 9 15 32 29 38 20 35 32 42 42 46 50 57 49 49 48 46 47 41 38 38 36 36 35 39 39 34 31 33 28 27 27 25 30 29 29 29 29 29 28
28 19 17 11 4 6 7 6 17 30 9 21 34 31 28 30 34 34 40 44 41 49 53 49 47 47 43 41 38 39 36 36 34 38 42 38 35 30 33 28 32 29 28 27 29 30 31 31 29
27 30 22 11 7 3 5 5 31 36 21 7 20 35 31 30 33 29 36 41 45 46 44 45 43 44 47 47 44 41 38 37 36 37 41 40 34 32 33 27 28 27 25 29 29 30 31 30 29
38 35 38 2 4 8 8 3 32 42 30 9 5 24 24 34 28 30 29 43 48 46 43 42 42 43 42 45 44 42 39 39 39 38 39 37 35 32 32 30 33 34 30 30 33 30 29 30 27
Wind_Direction
261 259 257 255 242 237 238 233 245 252 252 258 259 251 252 235 222 216 207 310 235 216 207 233 232 207 197 192 190 189 183 182 180 184 186 187 189 186 184 182 180 151 140 132 123 116 110 117 138
256 257 254 248 240 238 245 239 243 260 257 260 258 252 249 245 230 235 209 214 245 211 208 226 220 205 197 192 192 189 184 186 189 190 186 187 188 180 176 171 166 139 149 130 129 116 117 108 122
255 251 247 242 241 239 249 253 255 262 261 256 258 257 251 243 236 232 227 231 235 220 212 210 209 205 196 193 189 191 187 186 195 196 190 187 186 176 173 163 160 153 145 141 137 132 118 118 110
250 247 245 241 242 251 252 251 264 264 261 252 251 255 252 245 242 223 221 217 218 215 200 200 205 202 195 191 194 192 190 189 196 198 198 189 185 175 170 164 158 157 150 150 137 138 130 121 117
249 243 242 247 250 254 255 257 252 257 266 257 251 246 247 247 237 223 218 209 209 208 201 197 201 201 193 188 193 194 193 193 195 197 201 195 181 170 165 161 161 156 153 150 142 133 134 129 128
246 240 242 246 255 255 257 262 255 251 251 256 251 253 244 239 235 218 211 201 205 210 215 197 194 196 194 193 190 193 199 202 197 194 198 188 182 169 165 161 159 161 154 150 141 134 131 128 126
243 244 249 256 258 257 261 262 258 256 250 249 260 263 257 231 227 213 205 204 208 206 206 197 191 186 194 197 196 195 199 203 202 196 190 180 181 169 165 162 165 159 156 144 143 139 130 129 127
243 244 251 252 250 258 258 259 261 255 253 248 249 252 251 241 223 206 206 207 205 207 199 193 192 186 192 197 199 201 198 197 206 200 189 179 178 172 166 166 165 162 160 145 144 140 135 135 132
240 238 249 253 252 252 261 254 261 258 251 242 247 251 254 248 230 211 209 208 207 202 201 194 190 187 193 199 202 202 204 201 200 198 191 182 179 176 170 170 168 163 159 152 148 141 141 138 137
231 236 251 249 260 261 260 257 261 257 255 243 242 248 244 238 229 218 212 210 207 202 199 198 196 196 197 202 204 207 208 205 200 196 190 185 183 178 173 175 171 166 162 160 158 150 147 143 140
239 244 254 246 264 258 256 253 246 252 249 245 243 245 241 232 225 221 217 215 216 211 206 206 206 204 205 207 207 208 209 205 202 196 190 181 187 186 178 181 174 166 159 161 162 156 152 149 147
243 249 252 251 250 247 244 248 238 246 247 247 242 238 234 229 218 221 214 214 217 216 214 212 210 209 208 211 210 209 207 206 205 201 193 185 185 190 185 180 165 164 172 165 166 162 160 157 155
246 254 252 251 258 253 250 248 245 245 244 241 234 236 224 215 214 216 219 213 216 216 215 209 209 211 208 210 209 208 205 204 203 205 196 190 184 187 184 175 169 179 175 169 169 166 165 168 164
255 247 252 252 252 247 251 253 247 248 245 240 236 230 224 217 213 207 214 212 211 213 214 210 213 212 211 210 209 207 206 203 200 204 198 193 187 187 182 176 178 178 179 176 172 173 174 175 172
268 266 261 253 252 258 256 256 242 245 243 244 235 232 229 216 212 210 209 213 210 211 215 218 219 213 210 213 211 207 205 203 200 200 198 194 193 189 184 178 183 181 183 183 182 180 180 180 178
274 266 268 258 271 271 255 257 249 259 251 242 241 233 227 220 212 207 209 211 214 211 212 217 214 208 209 213 214 206 203 203 200 200 197 196 194 193 192 184 182 185 186 188 187 186 188 186 184
280 275 281 274 263 257 262 262 272 263 251 247 245 239 230 222 215 212 208 207 211 209 213 212 210 207 212 216 212 205 202 202 202 201 198 198 196 195 194 191 189 188 190 191 191 193 189 192 194
312 312 305 293 279 253 247 251 254 230 227 238 252 248 234 222 218 213 209 206 207 212 213 212 212 210 214 213 201 208 203 200 201 202 202 201 199 197 198 195 194 193 193 195 197 194 199 194 194
304 298 295 294 291 295 274 262 251 255 229 220 220 233 226 225 220 215 213 209 210 207 212 212 210 211 210 208 204 208 212 200 202 200 200 202 202 201 200 200 199 196 196 197 199 202 200 202 204
302 296 291 290 283 292 285 277 258 257 250 237 221 224 226 224 218 213 212 211 209 210 212 212 214 214 210 208 203 208 202 210 210 205 201 203 202 201 201 202 204 203 201 201 201 203 205 204 203
309 297 297 287 296 303 286 279 260 248 256 250 238 213 213 210 208 211 206 208 209 208 210 211 213 214 211 207 204 203 204 203 205 209 214 206 206 204 203 203 203 205 206 206 205 204 205 202 210
306 318 298 284 301 295 287 293 276 263 250 250 245 232 217 210 202 204 204 200 210 208 211 212 211 212 214 211 210 208 205 208 219 214 210 218 211 209 206 205 205 205 206 207 205 205 203 205 205
304 308 297 290 281 283 281 265 279 267 253 245 243 242 219 220 207 201 201 203 206 209 207 214 214 212 212 211 209 208 205 207 196 219 213 216 215 214 213 211 210 210 207 205 207 208 207 207 209
300 315 309 284 266 263 262 227 262 246 236 239 238 235 236 212 214 208 201 203 206 207 207 209 212 212 213 213 213 213 215 218 220 219 214 209 218 216 216 216 215 214 213 211 209 207 207 209 212
343 345 321 351 190 242 308 211 242 243 234 223 218 227 231 226 226 213 200 202 207 208 210 210 210 209 213 216 217 219 220 221 218 216 213 216 216 222 223 226 222 218 215 215 214 212 212 213 214
354 348 314 303 302 290 284 223 327 261 230 229 220 215 210 217 225 212 206 201 207 210 211 213 212 214 213 220 216 214 216 220 216 212 211 211 214 214 216 222 225 218 217 216 215 216 216 218 221
347 354 342 285 279 256 249 322 235 285 253 227 220 224 199 201 206 207 206 203 204 210 214 214 215 219 225 222 214 215 216 220 215 212 211 209 205 218 218 220 222 220 220 216 216 216 218 221 223
349 346 336 330 299 311 316 69 13 1 340 230 218 207 205 197 195 204 204 197 196 202 211 217 221 224 222 218 216 218 218 219 217 212 209 212 213 224 217 217 220 217 218 220 220 220 219 222 224
5 355 351 290 260 295 311 89 4 4 22 281 230 200 194 186 179 189 207 204 200 200 209 211 214 217 222 223 221 219 218 220 220 215 214 210 217 214 226 218 222 218 226 227 220 222 224 225 228
6 11 0 308 334 337 272 323 6 21 44 53 206 204 188 191 210 193 197 207 205 209 213 211 211 215 216 214 213 215 216 218 218 216 216 213 207 215 213 213 236 229 231 229 222 221 230 227 230
Height
3120 3120 3120 3122 3123 3108 3098 3101 3108 3112 3115 3116 3118 3119 3121 3124 3126 3132 3130 3132 3133 3135 3138 3140 3141 3142 3145 3148 3150 3153 3155 3157 3159 3161 3162 3164 3166 3167 3168 3170 3171 3172 3174 3175 3175 3175 3176 3177 3178
3115 3115 3116 3113 3109 3097 3089 3098 3104 3109 3111 3112 3113 3114 3115 3116 3120 3123 3128 3130 3132 3133 3136 3137 3139 3141 3143 3146 3149 3152 3154 3156 3158 3159 3161 3163 3164 3166 3168 3170 3171 3173 3173 3175 3176 3176 3176 3178 3179
3109 3108 3108 3104 3092 3080 3086 3097 3106 3107 3108 3109 3109 3110 3110 3109 3116 3119 3125 3128 3130 3132 3134 3135 3137 3139 3141 3145 3148 3150 3153 3155 3157 3158 3160 3161 3163 3165 3167 3169 3171 3173 3174 3175 3177 3177 3177 3179 3179
3103 3101 3100 3089 3076 3077 3084 3092 3100 3101 3101 3102 3105 3103 3102 3107 3111 3116 3120 3123 3126 3129 3132 3133 3135 3137 3140 3143 3146 3149 3151 3153 3155 3157 3159 3161 3163 3165 3167 3169 3171 3172 3175 3176 3177 3178 3179 3179 3180
3097 3093 3088 3073 3066 3072 3079 3089 3095 3094 3093 3096 3099 3095 3098 3103 3106 3111 3116 3119 3123 3126 3129 3131 3133 3135 3139 3142 3145 3148 3150 3152 3154 3156 3158 3160 3162 3164 3167 3169 3171 3173 3175 3177 3178 3180 3180 3181 3181
3089 3086 3076 3060 3059 3066 3071 3082 3085 3088 3090 3090 3090 3090 3092 3098 3101 3106 3111 3114 3119 3122 3125 3128 3131 3133 3137 3140 3142 3146 3149 3151 3153 3155 3156 3159 3161 3164 3166 3169 3171 3173 3175 3177 3179 3180 3182 3183 3183
3081 3078 3061 3053 3051 3055 3064 3074 3073 3081 3083 3081 3087 3083 3084 3090 3096 3101 3106 3109 3114 3117 3120 3124 3127 3130 3134 3138 3141 3144 3147 3150 3152 3153 3155 3158 3161 3163 3166 3168 3170 3173 3175 3177 3179 3181 3182 3184 3185
3070 3071 3054 3042 3040 3036 3055 3063 3065 3071 3072 3078 3078 3069 3076 3085 3091 3096 3100 3103 3108 3111 3115 3119 3123 3126 3131 3135 3139 3143 3145 3148 3151 3153 3154 3156 3160 3162 3165 3168 3170 3172 3174 3177 3179 3181 3182 3184 3185
3063 3056 3037 3029 3041 3044 3049 3054 3056 3063 3063 3068 3066 3068 3073 3079 3082 3089 3093 3096 3100 3104 3111 3115 3119 3123 3127 3131 3135 3140 3143 3146 3148 3151 3154 3156 3158 3161 3164 3166 3169 3172 3175 3177 3179 3181 3184 3185 3186
3046 3037 3019 3032 3040 3039 3044 3048 3050 3053 3056 3058 3057 3062 3068 3072 3077 3080 3085 3090 3095 3100 3106 3112 3115 3119 3123 3128 3132 3136 3140 3144 3147 3149 3153 3155 3157 3159 3163 3165 3168 3171 3174 3177 3179 3181 3182 3185 3187
3031 3014 3024 3025 3030 3033 3034 3036 3043 3041 3042 3048 3053 3055 3060 3064 3069 3073 3080 3087 3094 3100 3102 3106 3111 3115 3119 3124 3128 3132 3137 3142 3145 3147 3150 3153 3156 3158 3161 3164 3167 3170 3174 3177 3179 3181 3183 3184 3187
3020 3012 3015 3016 3020 3023 3023 3025 3028 3030 3033 3041 3046 3047 3051 3055 3059 3067 3072 3079 3086 3092 3097 3102 3106 3110 3115 3120 3125 3129 3134 3138 3142 3145 3148 3151 3153 3157 3160 3163 3168 3171 3172 3175 3178 3181 3183 3185 3186
3009 3005 3009 3010 3010 3011 3014 3012 3016 3015 3022 3030 3035 3039 3041 3047 3052 3059 3068 3074 3080 3085 3089 3095 3101 3106 3111 3115 3120 3126 3130 3134 3139 3142 3146 3149 3152 3154 3158 3162 3166 3169 3172 3175 3178 3180 3183 3185 3187
2998 2996 2994 2995 2995 2999 3000 2999 3005 2991 3012 3017 3023 3028 3034 3039 3044 3051 3058 3064 3070 3079 3084 3090 3096 3102 3107 3111 3116 3121 3126 3130 3135 3139 3143 3147 3150 3152 3156 3160 3163 3166 3170 3173 3177 3180 3182 3185 3187
2990 2986 2980 2982 2984 2985 2991 2983 2978 2989 2998 3001 3009 3016 3024 3031 3036 3041 3048 3057 3064 3072 3080 3084 3091 3097 3100 3106 3111 3117 3122 3126 3130 3135 3139 3144 3147 3150 3153 3158 3161 3165 3168 3171 3175 3178 3180 3183 3186
2978 2977 2970 2975 2980 2978 2982 2957 2967 2981 2986 2987 2995 3004 3011 3021 3028 3033 3040 3050 3057 3063 3070 3078 3084 3090 3095 3100 3105 3111 3117 3122 3126 3131 3135 3140 3144 3148 3152 3155 3159 3163 3166 3169 3173 3176 3179 3182 3185
2972 2967 2965 2961 2966 2967 2968 2956 2964 2972 2978 2978 2984 2991 2999 3008 3018 3025 3032 3039 3048 3055 3062 3070 3077 3084 3090 3095 3100 3106 3112 3117 3122 3126 3131 3136 3140 3145 3149 3153 3157 3160 3164 3167 3171 3174 3178 3181 3184
2968 2964 2959 2958 2956 2955 2951 2947 2949 2956 2957 2967 2975 2978 2986 2994 3005 3015 3023 3031 3039 3048 3056 3063 3071 3078 3084 3088 3094 3100 3105 3111 3117 3123 3128 3132 3137 3142 3146 3150 3154 3158 3161 3165 3169 3172 3176 3179 3182
2964 2961 2955 2951 2949 2947 2942 2937 2938 2948 2950 2954 2959 2968 2974 2982 2995 3005 3014 3022 3031 3039 3047 3055 3062 3069 3075 3080 3088 3094 3100 3107 3113 3118 3124 3129 3133 3139 3143 3147 3151 3154 3159 3163 3166 3170 3173 3177 3181
2956 2952 2945 2940 2940 2939 2933 2927 2930 2934 2939 2945 2951 2956 2962 2972 2984 2993 3003 3012 3020 3029 3039 3047 3055 3062 3070 3076 3084 3091 3099 3104 3110 3113 3118 3123 3128 3134 3140 3145 3149 3152 3156 3159 3164 3168 3172 3175 3178
2948 2945 2939 2935 2930 2931 2925 2917 2919 2923 2928 2935 2940 2948 2952 2959 2970 2983 2992 3002 3012 3021 3030 3039 3047 3056 3063 3071 3077 3083 3090 3096 3102 3109 3114 3120 3126 3131 3136 3141 3145 3149 3153 3158 3162 3166 3170 3173 3176
2942 2940 2935 2930 2929 2926 2924 2910 2913 2914 2918 2924 2931 2938 2945 2952 2961 2971 2983 2993 3004 3013 3023 3032 3040 3049 3056 3063 3072 3079 3086 3093 3100 3107 3112 3116 3121 3127 3131 3137 3141 3145 3150 3155 3159 3163 3167 3170 3173
2939 2935 2928 2925 2922 2922 2914 2917 2904 2910 2909 2913 2921 2928 2937 2945 2955 2961 2972 2985 2995 3005 3014 3023 3034 3042 3050 3058 3066 3075 3082 3089 3091 3100 3107 3111 3117 3123 3128 3133 3138 3143 3147 3151 3155 3159 3163 3166 3169
2935 2928 2919 2916 2916 2913 2897 2906 2895 2897 2901 2905 2912 2921 2931 2940 2948 2957 2966 2977 2987 2999 3007 3016 3026 3035 3043 3053 3061 3069 3077 3083 3089 3096 3103 3107 3113 3119 3124 3129 3134 3139 3143 3147 3151 3155 3158 3162 3165
2935 2926 2918 2916 2913 2905 2894 2897 2884 2885 2890 2897 2905 2914 2924 2935 2941 2951 2957 2969 2978 2989 3000 3010 3020 3028 3037 3046 3056 3064 3071 3078 3085 3093 3098 3103 3109 3115 3121 3126 3130 3135 3139 3143 3147 3151 3155 3158 3161
2934 2931 2926 2917 2907 2896 2891 2885 2883 2880 2885 2892 2901 2907 2916 2928 2932 2942 2952 2963 2972 2982 2992 3003 3012 3021 3030 3040 3050 3058 3066 3073 3080 3086 3093 3100 3106 3112 3117 3122 3127 3130 3135 3139 3143 3147 3151 3155 3158
2935 2931 2927 2917 2905 2900 2885 2881 2881 2880 2880 2885 2889 2899 2908 2918 2927 2935 2946 2957 2966 2977 2986 2995 3006 3015 3025 3034 3045 3052 3061 3067 3074 3081 3087 3094 3098 3107 3112 3117 3121 3126 3130 3134 3138 3142 3147 3150 3153
2939 2934 2923 2920 2912 2899 2882 2881 2887 2877 2876 2878 2884 2892 2903 2914 2922 2930 2940 2950 2960 2971 2982 2992 3001 3010 3019 3029 3039 3047 3055 3063 3070 3076 3082 3089 3095 3100 3105 3111 3116 3121 3126 3129 3133 3138 3141 3145 3149
2938 2931 2926 2919 2915 2909 2895 2889 2888 2881 2874 2876 2880 2886 2898 2909 2918 2927 2936 2947 2957 2967 2977 2986 2995 3003 3011 3021 3031 3040 3049 3057 3064 3071 3077 3083 3090 3096 3099 3105 3112 3116 3121 3125 3128 3133 3137 3141 3145
2945 2936 2927 2919 2914 2910 2903 2895 2886 2876 2872 2873 2880 2887 2896 2904 2913 2921 2931 2939 2949 2960 2970 2979 2989 2996 3004 3013 3023 3033 3043 3051 3058 3065 3071 3077 3085 3091 3092 3099 3106 3110 3114 3118 3123 3127 3133 3137 3141